Regional Weather Roundup
Issued by NWS

Home | Current Version | Previous Version | Graphics & Text | Print | Product List | Glossary On
Versions: 1 2 3 4 5 6 7 8 9 10 11 12 13 14 15 16 17 18 19 20 21 22 23 24 25 26 27 28 29 30 31 32 33 34 35 36 37 38 39 40 41 42 43 44 45 46 47 48 49 50
000
ASUS43 KDMX 231806
RWRIA

WEATHER ROUNDUP FOR IOWA
NATIONAL WEATHER SERVICE DES MOINES IA
1200 PM CST MON JAN 23 2017

NOTE: "FAIR" INDICATES FEW OR NO CLOUDS BELOW 12,000 FEET WITH NO
SIGNIFICANT WEATHER AND/OR OBSTRUCTIONS TO VISIBILITY.

* - THESE STATIONS ARE NOT NWS STATIONS...THUS NOT UNDER NWS
QUALITY CONTROL.  THEY ALSO DO NOT REPORT WEATHER SUCH
AS PRECIPITATION OR FOG.

IAZ001>003-012>014-020>022-031>034-043>046-231900-
   NORTHWEST IOWA

CITY           SKY/WX    TMP DP  RH WIND       PRES   REMARKS
CARROLL *      CLOUDY    34  32  93 NW6       29.87F WCI  29
CHEROKEE *     CLOUDY    32  31  95 W6        29.87S WCI  26
DENISON *      CLOUDY    32  28  86 N3        29.86S
LE MARS *      CLOUDY    32  28  86 W7        29.88F WCI  26
ORANGE CITY *  CLOUDY    30  28  93 W6        29.86S WCI  24
SHELDON *      CLOUDY    30  32 100 NW5       29.83F WCI  25
SIOUX CITY     CLOUDY    34  29  82 W5        29.88F WCI  30
6HR MIN TEMP:  33; 6HR MAX TEMP:  34;

STORM LAKE *   PTSUNNY   32  28  86 N5        29.85F WCI  27
$$

IAZ055>058-069>071-079>083-090>094-231900-
   SOUTHWEST IOWA

CITY           SKY/WX    TMP DP  RH WIND       PRES   REMARKS
ATLANTIC *     CLOUDY    32  28  86 CALM      29.89S
AUDUBON *      CLOUDY    34  28  80 NW3       29.89S
CLARINDA *     CLOUDY    32  30  93 CALM      29.93F
COUNCIL BLFS * CLOUDY    32  30  93 N3        29.88F
CRESTON *      CLOUDY    32  30  93 NW6       29.89F WCI  26
HARLAN  *      CLOUDY    32  32 100 CALM      29.92F
LAMONI         CLOUDY    32  28  85 N6        29.87F WCI  26
6HR MIN TEMP:  31; 6HR MAX TEMP:  32;

RED OAK *      CLOUDY    34  28  80 CALM      29.91F
SHENANDOAH *   CLOUDY    34  30  86 CALM      29.92S
$$

IAZ047>049-059>061-072>074-084-231900-
   CENTRAL IOWA

CITY           SKY/WX    TMP DP  RH WIND       PRES   REMARKS
AMES           CLOUDY    33  31  92 N7        29.87F WCI  27
6HR MIN TEMP:  32; 6HR MAX TEMP:  33;

ANKENY *       CLOUDY    32  30  93 N6        29.89F WCI  26
BOONE *        CLOUDY    32  32 100 NW8       29.86F WCI  25
CHARITON *     CLOUDY    32  30  93 NW8       29.88F WCI  25
DES MOINES     CLOUDY    33  29  85 N7        29.89F WCI  27
6HR MIN TEMP:  33; 6HR MAX TEMP:  33; 6HR PCP: TRACE;

GRINNELL*      CLOUDY    32  30  93 NW7       29.88F WCI  26
KNOXVILLE *    CLOUDY    32  30  93 NW8       29.86F WCI  25
MARSHALLTOWN   CLOUDY    32  30  92 NW7       29.86F WCI  26
6HR MIN TEMP:  32; 6HR MAX TEMP:  32;

NEWTON *       CLOUDY    32  30  93 NW7       29.87F WCI  26
PELLA *        CLOUDY    33  31  92 NW6       29.90F FOG     WCI  27
PERRY *        CLOUDY    33  30  88 NW7       29.88S WCI  27
$$

IAZ004>006-015-016-023>025-035-036-231900-
   NORTH CENTRAL IOWA

CITY           SKY/WX    TMP DP  RH WIND       PRES   REMARKS
ALGONA *       CLOUDY    34  30  86 NE7       29.85F WCI  28
CLARION *      CLOUDY    32  32 100 NW5       29.85F WCI  27
ESTHERVILLE    CLOUDY    32  30  92 N5        29.84F WCI  27
6HR MIN TEMP:  31; 6HR MAX TEMP:  32;

FORT DODGE *   CLOUDY    34  27  75 N3        29.86F
MASON CITY     CLOUDY    33  28  81 NW7       29.86F WCI  27
6HR MIN TEMP:  31; 6HR MAX TEMP:  33;

FOREST CITY *  CLOUDY    32  32 100 NW8       29.85F WCI  25
WEBSTER CITY * CLOUDY    34 N/A N/A N6        29.84F WCI  29
IOWA FALLS *   CLOUDY    33  31  92 NW6       29.87F WCI  27
$$

IAZ007>011-017>019-026>030-037>042-050>054-066-231900-
   NORTHEAST IOWA

CITY           SKY/WX    TMP DP  RH WIND       PRES   REMARKS
CEDAR RAPIDS   MIX PCPN  36  33  89 W9        29.84F WCI  29
6HR MIN TEMP:  32; 6HR MAX TEMP:  36; 6HR PCP: TRACE;

CHARLES CITY * CLOUDY    34  34 100 W7        29.85F WCI  28
CLINTON *      CLOUDY    39  37  92 W10       29.82F WCI  32
DECORAH *      CLOUDY    36  32  87 VRB7      29.82S WCI  30
DUBUQUE        CLOUDY    37  34  89 N7        29.81F WCI  32
6HR MIN TEMP:  34; 6HR MAX TEMP:  37;

MONTICELLO *   CLOUDY    37  34  87 W8        29.83S WCI  31
OELWEIN *      CLOUDY    34  34 100 NW12      29.84F WCI  25
WATERLOO       CLOUDY    33  29  85 W5        29.86F WCI  29
6HR MIN TEMP:  32; 6HR MAX TEMP:  33; 6HR PCP: TRACE;

$$

IAZ064-065-067-068-078-231900-
   EAST CENTRAL IOWA

CITY           SKY/WX    TMP DP  RH WIND       PRES   REMARKS
DAVENPORT      CLOUDY    38  35  89 NW12      29.83F WCI  30
6HR MIN TEMP:  35; 6HR MAX TEMP:  39;

IOWA CITY      CLOUDY    38  33  82 W10       29.87F WCI  31
6HR MIN TEMP:  35; 6HR MAX TEMP:  38; 6HR PCP: TRACE;

MUSCATINE *    CLOUDY    39  34  81 NW12      29.86F WCI  32
QUAD CITIES    CLOUDY    40  35  83 W10       29.82F WCI  33
6HR MIN TEMP:  37; 6HR MAX TEMP:  41;

$$

IAZ062-063-075>077-085>089-095>099-231900-
   SOUTHEAST IOWA

CITY           SKY/WX    TMP DP  RH WIND       PRES   REMARKS
BURLINGTON     CLOUDY    38  36  92 NW10      29.85S WCI  31
6HR MIN TEMP:  37; 6HR MAX TEMP:  39;

FAIRFIELD *    CLOUDY    36  32  87 W13       29.87F WCI  27
FORT MADISON * CLOUDY    37  36  93 W9        29.87F FOG     WCI  31
KEOKUK *       CLOUDY    39 N/A N/A NW9       29.87S WCI  33
OSKALOOSA *    CLOUDY    32  31  93 NW8       29.88F WCI  25
CENTERVILLE *  CLOUDY    32  32 100 CALM      29.89F
OTTUMWA        CLOUDY    34  28  79 W7        29.88F WCI  28
6HR MIN TEMP:  33; 6HR MAX TEMP:  34;

WASHINGTON *   CLOUDY    37  34  87 NW8       29.88S WCI  31
$$

ABBREVIATIONS USED IN REMARKS
   TC - TEMPERATURES IN CELSIUS
  WCI - WIND CHILL INDEX
   HX - HEAT INDEX
  VSB - VISIBILITY
$$




USA.gov is the U.S. government's official web portal to all federal, state and local government web resources and services.